Find Local Weather

World > North America > United States > Washington

Seattle, Washington Regional Weather

Lat: 47.61N, Lon: 122.33W
Wx Zone: WAZ558
Feedback
Expires:201811171700;;447059
ASUS46 KSEW 171610
RWRWA 

WASHINGTON REGIONAL WEATHER ROUNDUP
NATIONAL WEATHER SERVICE SEATTLE WA
800 AM PST SAT NOV 17 2018

NOTE:"FAIR" INDICATES FEW OR NO CLOUDS BELOW 12,000 FEET WITH NO 
SIGNIFICANT WEATHER AND/OR OBSTRUCTIONS TO VISIBILITY.


WAZ507-509-555>559-171700-
SEATTLE, TACOMA, EVERETT, AND VICINITY
  
CITY           SKY/WX    TMP DP  RH WIND       PRES   REMARKS
EVERETT        CLEAR     39  36  89 N5        30.32S                  
BOEING FIELD   MOCLDY    44  41  89 NW5       30.32R                  
RENTON         PTCLDY    45  41  86 NW9       30.31R                  
SEATAC AIRPORT PTCLDY    43  40  89 N14       30.30R                  
JBLM-MCCHORD   CLEAR     32  32 100 CALM      30.30R                  
PUYALLUP       CLOUDY    43  43 100 CALM      30.29S FOG              
BREMERTON      CLEAR     43  34  70 NE8       30.31S                  
JBLM-FT LEWIS  PTCLDY    36  36 100 NE3       30.29R FOG              
TACOMA NARROWS PTCLDY    43  39  86 N9        30.30R                  
$$
 

SKY/WX - Weather  TMP - Temperature  DP - Dew Point  RH - Relative Humidity
WIND - Wind Direction/Speed PRES - Barometric Pressure